OK2ZAW-23 Weather Reports


time (UTC)temp
C
wind
direction
speed
KPH
gust
KPH
rain 1hr
cm
rain 24hr
cm
rain mn
cm
humidity
%
barometer
mb
20260506133344 26 0 0.0 0.0 0.00 0.00 0.00 35 1003.0
20260506132829 25 0 0.0 0.0 0.00 0.00 0.00 36 1003.1
20260506132315 25 0 0.0 0.0 0.00 0.00 0.00 36 1003.2
20260506131245 24 0 0.0 0.0 0.00 0.00 0.00 36 1003.4
20260506125701 23 0 0.0 0.0 0.00 0.00 0.00 36 1003.6
20260506123603 23 0 0.0 0.0 0.00 0.00 0.00 37 1003.9
20260506123048 24 0 0.0 0.0 0.00 0.00 0.00 37 1003.9
20260506122534 25 0 0.0 0.0 0.00 0.00 0.00 37 1004.1
20260506115405 25 0 0.0 0.0 0.00 0.00 0.00 36 1004.2
20260506114336 24 0 0.0 0.0 0.00 0.00 0.00 37 1004.2
20260506113307 24 0 0.0 0.0 0.00 0.00 0.00 36 1004.3
20260506105109 25 0 0.0 0.0 0.00 0.00 0.00 40 1004.6
20260506104555 24 0 0.0 0.0 0.00 0.00 0.00 41 1004.7
20260506103525 23 0 0.0 0.0 0.00 0.00 0.00 43 1004.7
20260506103011 23 0 0.0 0.0 0.00 0.00 0.00 44 1004.8
20260506102457 23 0 0.0 0.0 0.00 0.00 0.00 44 1004.8
20260506101942 23 0 0.0 0.0 0.00 0.00 0.00 43 1004.8
20260506101427 23 0 0.0 0.0 0.00 0.00 0.00 44 1004.9
20260506100913 23 0 0.0 0.0 0.00 0.00 0.00 45 1004.9
20260506095845 22 0 0.0 0.0 0.00 0.00 0.00 46 1005.1
20260506095330 22 0 0.0 0.0 0.00 0.00 0.00 44 1005.0
20260506093232 21 0 0.0 0.0 0.00 0.00 0.00 48 1005.1
20260506092203 22 0 0.0 0.0 0.00 0.00 0.00 51 1005.1
20260506091649 21 0 0.0 0.0 0.00 0.00 0.00 53 1004.9
20260506091135 21 0 0.0 0.0 0.00 0.00 0.00 54 1005.0
20260506090620 20 0 0.0 0.0 0.00 0.00 0.00 54 1005.1
20260506090106 19 0 0.0 0.0 0.00 0.00 0.00 54 1005.1
20260506085552 19 0 0.0 0.0 0.00 0.00 0.00 54 1005.0
20260506085038 18 0 0.0 0.0 0.00 0.00 0.00 55 1005.0
20260506084010 19 0 0.0 0.0 0.00 0.00 0.00 59 1005.2
20260506082942 19 0 0.0 0.0 0.00 0.00 0.00 58 1005.2
20260506082428 19 0 0.0 0.0 0.00 0.00 0.00 57 1005.2
20260506081914 18 0 0.0 0.0 0.00 0.00 0.00 56 1005.2
20260506073209 16 0 0.0 0.0 0.00 0.00 0.00 68 1005.3
20260506072655 16 0 0.0 0.0 0.00 0.00 0.00 68 1005.3
20260506071628 16 0 0.0 0.0 0.00 0.00 0.00 71 1005.4
20260506061343 13 0 0.0 0.0 0.00 0.00 0.00 85 1005.1
20260506060830 13 0 0.0 0.0 0.00 0.00 0.00 86 1005.0
20260506050548 12 0 0.0 0.0 0.00 0.00 0.00 10 1004.9
20260506045008 11 0 0.0 0.0 0.00 0.00 0.00 10 1004.6
20260506043942 11 0 0.0 0.0 0.00 0.00 0.00 10 1004.5
20260506043428 11 0 0.0 0.0 0.00 0.00 0.00 10 1004.5
20260506042914 11 0 0.0 0.0 0.00 0.00 0.00 10 1004.4
20260506041848 11 0 0.0 0.0 0.00 0.00 0.00 10 1004.3
20260506040822 11 0 0.0 0.0 0.00 0.00 0.00 10 1004.3
20260506035754 11 0 0.0 0.0 0.00 0.00 0.00 10 1004.1
20260506033701 11 0 0.0 0.0 0.00 0.00 0.00 10 1003.9
20260506030541 12 0 0.0 0.0 0.00 0.00 0.00 10 1004.0
20260506025514 12 0 0.0 0.0 0.00 0.00 0.00 10 1004.0
20260506022353 12 0 0.0 0.0 0.00 0.00 0.00 10 1003.9
20260506021840 12 0 0.0 0.0 0.00 0.00 0.00 10 1004.0
20260506021326 12 0 0.0 0.0 0.00 0.00 0.00 10 1003.9
20260506020259 12 0 0.0 0.0 0.00 0.00 0.00 10 1003.7
20260506014206 12 0 0.0 0.0 0.00 0.00 0.00 10 1003.6
20260506013652 12 0 0.0 0.0 0.00 0.00 0.00 10 1003.6
20260506011045 13 0 0.0 0.0 0.00 0.00 0.00 10 1003.4
20260506010018 13 0 0.0 0.0 0.00 0.00 0.00 10 1003.4
20260506005505 13 0 0.0 0.0 0.00 0.00 0.00 10 1003.5
20260506004950 13 0 0.0 0.0 0.00 0.00 0.00 98 1003.5
20260506004437 13 0 0.0 0.0 0.00 0.00 0.00 96 1003.5
20260506003924 13 0 0.0 0.0 0.00 0.00 0.00 93 1003.5
20260506003411 13 0 0.0 0.0 0.00 0.00 0.00 92 1003.5
20260506002343 13 0 0.0 0.0 0.00 0.00 0.00 81 1003.5
20260506001829 13 0 0.0 0.0 0.00 0.00 0.00 79 1003.4
20260506001316 13 0 0.0 0.0 0.00 0.00 0.00 77 1003.4
20260506000249 13 0 0.0 0.0 0.00 0.00 0.00 72 1003.2
20260505235735 13 0 0.0 0.0 0.00 0.00 0.00 68 1003.2
20260505233641 13 0 0.0 0.0 0.00 0.00 0.00 64 1003.5
20260505233127 13 0 0.0 0.0 0.00 0.00 0.00 63 1003.5
20260505232614 13 0 0.0 0.0 0.00 0.00 0.00 61 1003.5
20260505231546 13 0 0.0 0.0 0.00 0.00 0.00 59 1003.3
20260505231034 14 0 0.0 0.0 0.00 0.00 0.00 59 1003.2
20260505230519 14 0 0.0 0.0 0.00 0.00 0.00 58 1003.2
20260505230007 14 0 0.0 0.0 0.00 0.00 0.00 58 1003.1
20260505224939 13 0 0.0 0.0 0.00 0.00 0.00 57 1002.9
20260505223911 13 0 0.0 0.0 0.00 0.00 0.00 57 1002.9
20260505222844 14 0 0.0 0.0 0.00 0.00 0.00 58 1003.0
20260505222330 13 0 0.0 0.0 0.00 0.00 0.00 58 1003.0
20260505220749 13 0 0.0 0.0 0.00 0.00 0.00 58 1002.7
20260505215723 13 0 0.0 0.0 0.00 0.00 0.00 60 1003.1
20260505215209 13 0 0.0 0.0 0.00 0.00 0.00 57 1002.5
20260505213628 13 0 0.0 0.0 0.00 0.00 0.00 58 1002.2
20260505212601 13 0 0.0 0.0 0.00 0.00 0.00 57 1002.1
20260505211534 14 0 0.0 0.0 0.00 0.00 0.00 56 1002.2
20260505210506 14 0 0.0 0.0 0.00 0.00 0.00 55 1002.1
20260505205953 14 0 0.0 0.0 0.00 0.00 0.00 55 1002.0
20260505203344 15 0 0.0 0.0 0.00 0.00 0.00 52 1002.4
20260505202317 15 0 0.0 0.0 0.00 0.00 0.00 52 1002.3
20260505201803 15 0 0.0 0.0 0.00 0.00 0.00 50 1002.3
20260505201249 15 0 0.0 0.0 0.00 0.00 0.00 50 1002.3
20260505200736 16 0 0.0 0.0 0.00 0.00 0.00 49 1002.3
20260505200222 16 0 0.0 0.0 0.00 0.00 0.00 48 1002.3
20260505195154 16 0 0.0 0.0 0.00 0.00 0.00 47 1002.3
20260505194641 16 0 0.0 0.0 0.00 0.00 0.00 47 1002.3
20260505192545 17 0 0.0 0.0 0.00 0.00 0.00 45 1002.2
20260505192031 17 0 0.0 0.0 0.00 0.00 0.00 45 1002.3
20260505191518 17 0 0.0 0.0 0.00 0.00 0.00 44 1002.3
20260505191004 17 0 0.0 0.0 0.00 0.00 0.00 43 1002.3
20260505185421 18 0 0.0 0.0 0.00 0.00 0.00 42 1002.1
20260505184354 18 0 0.0 0.0 0.00 0.00 0.00 41 1002.1
20260505183839 18 0 0.0 0.0 0.00 0.00 0.00 39 1002.0
20260505183325 19 0 0.0 0.0 0.00 0.00 0.00 37 1002.0
20260505180715 20 0 0.0 0.0 0.00 0.00 0.00 35 1001.8
20260505174103 21 0 0.0 0.0 0.00 0.00 0.00 29 1001.8
20260505170936 23 0 0.0 0.0 0.00 0.00 0.00 25 1001.8
20260505170421 24 0 0.0 0.0 0.00 0.00 0.00 25 1001.9
20260505164837 25 0 0.0 0.0 0.00 0.00 0.00 24 1001.9
20260505161707 28 0 0.0 0.0 0.00 0.00 0.00 21 1002.3
20260505161153 29 0 0.0 0.0 0.00 0.00 0.00 20 1002.2
20260505152946 35 0 0.0 0.0 0.00 0.00 0.00 18 1002.3
20260505152430 35 0 0.0 0.0 0.00 0.00 0.00 18 1002.4
20260505151358 35 0 0.0 0.0 0.00 0.00 0.00 19 1002.5
20260505150842 35 0 0.0 0.0 0.00 0.00 0.00 18 1002.3
20260505140532 32 0 0.0 0.0 0.00 0.00 0.00 25 1003.5